FW3961 Weather Reports


Display with metric or nautical units.
time (UTC)temp
F
wind
direction
speed
MPH
gust
MPH
rain 1hr
in
rain 24hr
in
rain mn
in
humidity
%
barometer
mb
20260902200052 58 139 5.0 10.0 0.02 0.24 0.24 91 1007.6
20260902195554 58 131 5.0 10.0 0.03 0.24 0.24 92 1007.4
20260902195057 58 142 5.0 9.0 0.04 0.24 0.24 92 1007.4
20260902195053 58 125 5.0 10.0 0.03 0.24 0.24 92 1007.4
20260902194051 58 137 5.0 10.0 0.05 0.24 0.24 92 1007.4
20260902193550 58 132 5.0 10.0 0.05 0.24 0.24 92 1007.4
20260902193051 58 130 5.0 10.0 0.06 0.24 0.24 93 1007.3
20260902192550 58 136 5.0 11.0 0.07 0.24 0.24 93 1007.4
20260902192051 57 137 6.0 11.0 0.08 0.24 0.24 92 1007.3
20260902191554 57 136 6.0 11.0 0.13 0.23 0.23 93 1007.3
20260902191550 57 147 6.0 11.0 0.10 0.23 0.23 93 1007.3
20260902190551 57 127 6.0 11.0 0.14 0.23 0.23 93 1007.3
20260902190050 57 152 5.0 11.0 0.13 0.22 0.22 93 1007.4
20260902185549 57 153 5.0 11.0 0.12 0.21 0.21 93 1007.4
20260902185050 57 142 5.0 10.0 0.12 0.21 0.21 93 1007.5
20260902184548 57 130 4.0 10.0 0.11 0.20 0.20 93 1007.6
20260902184048 57 139 3.0 10.0 0.11 0.19 0.19 93 1007.7
20260902183549 57 134 3.0 8.0 0.11 0.19 0.19 92 1007.9
20260902183041 57 131 3.0 8.0 0.10 0.18 0.18 92 1007.9
20260902182535 57 137 3.0 7.0 0.10 0.17 0.17 92 1008.0
20260902182029 58 132 3.0 7.0 0.08 0.15 0.15 92 1007.9
20260902181525 58 138 4.0 8.0 0.07 0.13 0.13 92 1007.8
20260902181520 58 132 3.0 8.0 0.05 0.10 0.10 91 1008.0
20260902180512 58 130 3.0 7.0 0.05 0.09 0.09 91 1008.0
20260902180007 58 129 4.0 8.0 0.06 0.09 0.09 91 1008.0
20260902175459 58 131 3.0 8.0 0.07 0.09 0.09 91 1007.9
20260902175455 58 130 3.0 7.0 0.08 0.09 0.09 91 1007.9
20260902174448 58 132 3.0 7.0 0.08 0.08 0.08 91 1008.1
20260902173941 57 136 3.0 7.0 0.08 0.08 0.08 91 1008.1
20260902173437 57 126 3.0 7.0 0.08 0.08 0.08 90 1008.1
20260902172930 57 134 2.0 5.0 0.08 0.08 0.08 90 1008.1
20260902172424 57 155 1.0 4.0 0.07 0.07 0.07 89 1008.2
20260902171918 58 240 1.0 5.0 0.06 0.06 0.06 89 1008.2
20260902171413 58 186 2.0 5.0 0.05 0.05 0.06 88 1008.3
20260902170906 58 143 2.0 6.0 0.04 0.04 0.04 88 1008.3
20260902170400 58 192 2.0 6.0 0.04 0.04 0.04 87 1008.3
20260902165854 58 150 2.0 5.0 0.03 0.03 0.03 87 1008.3
20260902165350 59 76 2.0 9.0 0.02 0.02 0.02 86 1008.3
20260902164850 59 209 3.0 11.0 0.01 0.01 0.01 84 1008.2
20260902164349 60 181 2.0 11.0 0.00 0.00 0.00 83 1008.2
20260902163850 60 282 2.0 7.0 0.00 0.00 0.00 81 1008.2
20260902163350 61 146 2.0 7.0 0.00 0.00 0.00 80 1008.0
20260902162858 62 142 1.0 3.0 0.00 0.00 0.00 78 1007.8
20260902162850 61 265 1.0 4.0 0.00 0.00 0.00 79 1007.9
20260902161852 61 132 2.0 4.0 0.00 0.00 0.00 77 1007.6
20260902161848 62 132 1.0 4.0 0.00 0.00 0.00 77 1007.7
20260902160846 61 132 3.0 5.0 0.00 0.00 0.00 77 1007.7
20260902160343 61 131 3.0 5.0 0.00 0.00 0.00 77 1007.7
20260902155842 61 127 3.0 5.0 0.00 0.00 0.00 78 1007.8
20260902155342 61 134 3.0 7.0 0.00 0.00 0.00 78 1007.8
20260902154843 61 131 2.0 7.0 0.00 0.00 0.00 79 1007.9
20260902154338 61 123 3.0 6.0 0.00 0.00 0.00 79 1008.0
20260902153837 61 132 3.0 6.0 0.00 0.01 0.00 79 1008.0
20260902153338 60 133 3.0 7.0 0.00 0.01 0.00 80 1008.1
20260902152838 60 125 3.0 7.0 0.00 0.01 0.00 80 1008.1
20260902152708 60 130 3.0 6.0 0.00 0.01 0.00 81 1008.1
20260902152604 60 135 3.0 5.0 0.00 0.01 0.00 81 1008.1
20260902151326 60 132 3.0 4.0 0.00 0.01 0.00 82 1008.2
20260902150820 60 126 3.0 4.0 0.00 0.01 0.00 83 1008.2
20260902150314 59 125 2.0 4.0 0.00 0.01 0.00 83 1008.3
20260902145809 59 126 2.0 4.0 0.00 0.01 0.00 84 1008.4
20260902145301 59 130 2.0 4.0 0.00 0.01 0.00 84 1008.4
20260902144755 59 128 2.0 4.0 0.00 0.01 0.00 85 1008.3
20260902144250 59 128 2.0 4.0 0.00 0.01 0.00 85 1008.5
20260902143743 58 128 2.0 3.0 0.00 0.01 0.00 85 1008.5
20260902143238 58 128 2.0 4.0 0.00 0.01 0.00 85 1008.5
20260902142732 58 128 2.0 4.0 0.00 0.01 0.00 85 1008.6
20260902142225 58 128 2.0 4.0 0.00 0.01 0.00 86 1008.5
20260902141720 58 125 2.0 4.0 0.00 0.01 0.00 86 1008.6
20260902141216 58 125 1.0 3.0 0.00 0.01 0.00 86 1008.5
20260902140708 58 125 1.0 3.0 0.00 0.01 0.00 87 1008.6
20260902140204 58 125 2.0 3.0 0.00 0.01 0.00 87 1008.6
20260902135707 58 125 2.0 3.0 0.00 0.01 0.00 86 1008.7
20260902135703 58 125 2.0 3.0 0.00 0.01 0.00 87 1008.7
20260902134703 58 125 2.0 3.0 0.00 0.01 0.00 86 1008.8
20260902134204 58 125 2.0 3.0 0.00 0.01 0.00 86 1008.9
20260902133701 58 125 2.0 3.0 0.00 0.01 0.00 86 1008.9
20260902133201 58 125 2.0 3.0 0.00 0.01 0.00 86 1009.0
20260902132659 58 125 2.0 3.0 0.00 0.01 0.00 86 1009.0
20260902132159 58 125 2.0 4.0 0.00 0.01 0.00 86 1009.1
20260902131700 58 125 2.0 4.0 0.00 0.01 0.00 85 1009.1
20260902131159 58 126 2.0 3.0 0.00 0.01 0.00 85 1009.2
20260902130700 58 126 2.0 3.0 0.00 0.01 0.00 85 1009.3
20260902130159 58 126 2.0 3.0 0.00 0.01 0.00 85 1009.4
20260902125704 58 126 2.0 3.0 0.00 0.01 0.00 85 1009.3
20260902125204 58 125 2.0 3.0 0.00 0.01 0.00 84 1009.5
20260902124703 58 125 2.0 3.0 0.00 0.01 0.00 84 1009.5
20260902124204 58 125 1.0 3.0 0.00 0.01 0.00 84 1009.6
20260902123700 58 125 1.0 3.0 0.00 0.01 0.00 84 1009.9
20260902123200 59 123 2.0 3.0 0.00 0.01 0.00 83 1009.8
20260902122700 59 123 2.0 4.0 0.00 0.01 0.00 83 1009.9
20260902122200 59 123 1.0 4.0 0.00 0.01 0.00 83 1009.9
20260902121659 59 123 1.0 3.0 0.00 0.01 0.00 83 1010.0
20260902121159 59 118 1.0 3.0 0.00 0.01 0.00 83 1010.0
20260902120700 59 138 1.0 3.0 0.00 0.01 0.00 83 1010.2
20260902120157 59 138 2.0 3.0 0.00 0.01 0.00 83 1010.1
20260902115657 59 138 2.0 3.0 0.00 0.01 0.00 82 1010.3
20260902115158 59 138 2.0 3.0 0.00 0.01 0.00 82 1010.3
20260902114656 59 138 2.0 4.0 0.00 0.01 0.00 82 1010.5
20260902114155 59 138 3.0 4.0 0.00 0.01 0.00 82 1010.6
20260902113656 59 131 2.0 4.0 0.00 0.01 0.00 82 1010.6
20260902113155 59 135 2.0 5.0 0.00 0.01 0.00 82 1010.6
20260902112655 59 134 3.0 6.0 0.00 0.01 0.00 82 1010.7
20260902112154 59 132 3.0 6.0 0.00 0.01 0.00 82 1010.8
20260902111653 59 127 2.0 4.0 0.00 0.01 0.00 82 1010.9
20260902111154 60 128 2.0 4.0 0.00 0.01 0.00 81 1010.9
20260902110653 60 121 2.0 4.0 0.00 0.01 0.00 81 1010.9
20260902110147 60 133 2.0 4.0 0.00 0.01 0.00 81 1011.0
20260902105640 60 132 2.0 6.0 0.00 0.01 0.00 81 1011.1
20260902105636 60 127 3.0 6.0 0.00 0.01 0.00 81 1011.2
20260902104632 60 132 3.0 8.0 0.00 0.01 0.00 82 1011.2
20260902104628 59 123 3.0 8.0 0.00 0.01 0.00 82 1011.3
20260902103617 59 127 4.0 7.0 0.00 0.01 0.00 82 1011.3
20260902103111 59 132 4.0 7.0 0.00 0.01 0.00 83 1011.4
20260902103107 59 134 3.0 7.0 0.00 0.01 0.00 83 1011.4
20260902102059 58 136 3.0 7.0 0.00 0.01 0.00 84 1011.4
20260902101552 58 138 3.0 7.0 0.00 0.01 0.00 84 1011.5
20260902101046 58 133 2.0 5.0 0.00 0.01 0.00 85 1011.5
20260902100541 57 136 2.0 4.0 0.00 0.01 0.00 86 1011.4
20260902100536 57 136 2.0 3.0 0.00 0.01 0.00 86 1011.5
20260902095529 57 136 2.0 3.0 0.00 0.01 0.00 86 1011.6
20260902095023 57 136 2.0 4.0 0.00 0.01 0.00 86 1011.6
20260902094518 57 128 2.0 4.0 0.00 0.01 0.00 86 1011.6
20260902094514 57 128 2.0 3.0 0.00 0.01 0.00 86 1011.5
20260902093505 57 126 2.0 3.0 0.00 0.01 0.00 86 1011.8
20260902092959 57 125 2.0 3.0 0.00 0.01 0.00 86 1011.8
20260902092453 58 125 2.0 3.0 0.00 0.01 0.00 86 1011.8
20260902091947 57 124 2.0 3.0 0.00 0.01 0.00 86 1011.9
20260902091441 57 123 2.0 3.0 0.00 0.01 0.00 86 1012.0
20260902091436 57 123 1.0 3.0 0.00 0.01 0.00 86 1011.9
20260902090429 57 123 1.0 3.0 0.00 0.01 0.00 86 1012.0
20260902085923 57 123 1.0 3.0 0.00 0.01 0.00 86 1012.1
20260902085416 57 123 2.0 3.0 0.00 0.01 0.00 86 1012.1
20260902084910 57 123 2.0 3.0 0.00 0.01 0.00 86 1012.2
20260902084906 57 123 2.0 3.0 0.00 0.01 0.00 86 1012.3
20260902083859 57 123 2.0 3.0 0.00 0.01 0.00 85 1012.2
20260902083352 57 123 2.0 3.0 0.00 0.01 0.00 85 1012.3
20260902082847 58 123 2.0 4.0 0.00 0.01 0.00 84 1012.3
20260902082340 58 123 2.0 4.0 0.00 0.01 0.00 83 1012.4
20260902081835 58 127 2.0 4.0 0.00 0.01 0.00 82 1012.4
20260902081328 58 127 1.0 4.0 0.00 0.01 0.00 82 1012.6
20260902080824 59 123 1.0 2.0 0.00 0.01 0.00 82 1012.5
20260902080648 59 123 1.0 2.0 0.00 0.01 0.00 82 1012.5
20260902080543 59 123 1.0 2.0 0.00 0.01 0.00 82 1012.5
20260902075306 59 123 1.0 2.0 0.00 0.01 0.00 82 1012.4
20260902074759 59 124 1.0 4.0 0.00 0.01 0.00 82 1012.5
20260902074755 59 124 2.0 4.0 0.00 0.01 0.00 81 1012.5
20260902073747 59 167 2.0 4.0 0.00 0.01 0.00 81 1012.5
20260902073240 59 168 1.0 4.0 0.00 0.01 0.00 81 1012.6
20260902072736 59 168 1.0 3.0 0.00 0.01 0.00 81 1012.6
20260902072228 59 168 1.0 3.0 0.00 0.01 0.00 80 1012.6
20260902071723 59 243 0.0 3.0 0.00 0.01 0.00 80 1012.5
20260902071221 60 243 1.0 3.0 0.00 0.01 0.00 80 1012.6
20260902070720 60 244 1.0 6.0 0.00 0.01 0.00 80 1012.7
20260902070221 60 240 1.0 6.0 0.00 0.01 0.00 79 1012.8
20260902065720 60 207 1.0 5.0 0.00 0.01 0.01 79 1013.0
20260902065220 60 261 2.0 6.0 0.00 0.01 0.01 79 1013.0
20260902064718 60 288 2.0 7.0 0.00 0.01 0.01 80 1013.0
20260902064222 60 219 1.0 7.0 0.00 0.01 0.01 80 1013.0
20260902063723 60 206 0.0 3.0 0.00 0.01 0.01 81 1013.0
20260902063718 60 258 1.0 3.0 0.00 0.01 0.01 81 1013.0
20260902062713 60 209 1.0 3.0 0.00 0.01 0.01 81 1013.1
20260902062213 60 261 1.0 3.0 0.00 0.01 0.01 82 1013.0
20260902061714 60 177 1.0 5.0 0.00 0.01 0.01 82 1013.1
20260902061213 60 198 1.0 5.0 0.00 0.01 0.01 83 1013.2
20260902060713 60 236 0.0 4.0 0.00 0.01 0.01 83 1013.2
20260902060214 60 134 0.0 4.0 0.00 0.01 0.01 83 1013.3
20260902055710 60 128 0.0 0.0 0.00 0.01 0.01 84 1013.3
20260902055209 60 140 0.0 0.0 0.00 0.01 0.01 83 1013.4
20260902054709 60 140 0.0 1.0 0.00 0.01 0.01 83 1013.4
20260902054215 60 140 0.0 2.0 0.00 0.01 0.01 83 1013.5
20260902054209 60 140 0.0 2.0 0.00 0.01 0.01 83 1013.5
20260902053209 60 140 0.0 2.0 0.00 0.01 0.01 83 1013.4
20260902052711 60 140 0.0 2.0 0.00 0.01 0.01 83 1013.6
20260902052209 60 140 0.0 2.0 0.00 0.01 0.01 83 1013.5
20260902051710 60 140 0.0 3.0 0.00 0.01 0.01 84 1013.5
20260902051211 60 140 1.0 3.0 0.00 0.01 0.01 83 1013.5
20260902050709 60 140 2.0 5.0 0.00 0.01 0.01 84 1013.5
20260902050210 60 141 2.0 5.0 0.00 0.01 0.01 83 1013.6
20260902045709 60 159 2.0 5.0 0.00 0.01 0.01 84 1013.5
20260902045209 60 162 2.0 4.0 0.00 0.01 0.01 84 1013.5
20260902044710 60 162 2.0 4.0 0.00 0.01 0.01 83 1013.5
20260902044215 60 178 2.0 3.0 0.00 0.01 0.01 83 1013.4
20260902044211 60 164 2.0 4.0 0.00 0.01 0.01 83 1013.5
20260902043208 60 215 1.0 2.0 0.00 0.01 0.01 83 1013.4
20260902042703 61 216 1.0 2.0 0.00 0.01 0.01 82 1013.5
20260902042659 61 216 0.0 2.0 0.00 0.01 0.01 82 1013.4
20260902041651 61 216 0.0 2.0 0.00 0.01 0.01 81 1013.5
20260902041515 61 216 0.0 2.0 0.00 0.01 0.01 81 1013.4
20260902041411 61 217 0.0 2.0 0.00 0.01 0.01 81 1013.4
20260902040133 61 217 1.0 2.0 0.00 0.01 0.01 81 1013.4
20260902035627 61 217 0.0 2.0 0.00 0.01 0.01 81 1013.4
20260902035123 61 217 0.0 2.0 0.00 0.01 0.01 81 1013.4
20260902034615 61 217 0.0 2.0 0.00 0.01 0.01 81 1013.5
20260902034611 61 219 0.0 1.0 0.00 0.01 0.01 81 1013.5
20260902033603 61 219 0.0 3.0 0.00 0.01 0.01 81 1013.4
20260902033056 61 219 1.0 3.0 0.00 0.01 0.01 80 1013.4
20260902032551 61 227 1.0 3.0 0.00 0.01 0.01 80 1013.4
20260902032044 61 229 1.0 3.0 0.00 0.01 0.01 80 1013.5
20260902031538 61 196 1.0 3.0 0.00 0.01 0.01 80 1013.5
20260902031033 61 229 1.0 3.0 0.00 0.01 0.01 80 1013.5
20260902030526 61 237 1.0 3.0 0.00 0.01 0.01 80 1013.5
20260902030020 62 277 1.0 4.0 0.00 0.01 0.01 79 1013.5
20260902025513 62 242 1.0 4.0 0.00 0.01 0.01 79 1013.4
20260902025007 62 227 1.0 6.0 0.00 0.01 0.01 79 1013.3
20260902025003 62 211 1.0 6.0 0.00 0.01 0.01 78 1013.3
20260902023955 62 214 1.0 3.0 0.00 0.01 0.01 78 1013.2
20260902023450 62 222 1.0 6.0 0.00 0.01 0.01 78 1013.2
20260902022942 62 243 1.0 6.0 0.00 0.01 0.01 78 1013.2
20260902022437 62 282 1.0 4.0 0.00 0.01 0.01 78 1013.2
20260902021932 62 200 1.0 4.0 0.00 0.01 0.01 78 1013.3
20260902021928 62 205 1.0 4.0 0.00 0.01 0.01 78 1013.3
20260902020919 62 204 1.0 4.0 0.00 0.01 0.01 78 1013.3
20260902020413 62 234 2.0 4.0 0.00 0.01 0.01 78 1013.3
20260902015907 62 207 1.0 4.0 0.00 0.01 0.01 78 1013.3
20260902015403 62 221 1.0 4.0 0.00 0.01 0.01 78 1013.3
20260902014854 62 191 1.0 4.0 0.00 0.01 0.01 78 1013.3
20260902014349 62 217 1.0 5.0 0.00 0.01 0.01 78 1013.2
20260902013843 62 200 1.0 5.0 0.00 0.01 0.01 78 1013.2
20260902013838 62 264 1.0 3.0 0.00 0.01 0.01 78 1013.2
20260902012831 62 234 0.0 3.0 0.00 0.01 0.01 78 1013.2
20260902012324 62 230 1.0 3.0 0.00 0.01 0.01 78 1013.3
20260902011820 62 193 1.0 3.0 0.00 0.01 0.01 78 1013.3
20260902011312 62 197 1.0 4.0 0.00 0.01 0.01 78 1013.2
20260902010807 62 188 2.0 9.0 0.00 0.01 0.01 78 1013.1
20260902010301 63 237 2.0 9.0 0.00 0.01 0.01 77 1013.2
20260902005754 63 191 2.0 9.0 0.00 0.01 0.01 77 1013.2
20260902005249 63 205 3.0 10.0 0.00 0.01 0.01 76 1013.0
20260902004742 64 213 3.0 10.0 0.00 0.01 0.01 75 1013.0
20260902004237 64 186 3.0 9.0 0.00 0.01 0.01 74 1013.0
20260902004233 64 104 3.0 11.0 0.00 0.01 0.01 73 1013.0
20260902003229 66 0 2.0 6.0 0.00 0.01 0.01 71 1012.8
20260902003225 65 200 3.0 11.0 0.00 0.01 0.01 72 1012.8
20260902002227 66 281 2.0 4.0 0.00 0.01 0.01 69 1012.7
20260902001729 66 200 2.0 4.0 0.00 0.01 0.01 69 1012.6
20260902001226 66 225 2.0 4.0 0.00 0.01 0.01 68 1012.6
20260902000721 66 202 2.0 4.0 0.00 0.01 0.01 68 1012.5
20260902000221 66 211 1.0 4.0 0.00 0.01 0.01 68 1012.5
20260901235717 66 231 2.0 5.0 0.00 0.01 0.01 68 1012.5
20260901235218 67 220 2.0 8.0 0.00 0.01 0.01 67 1012.5
20260901234716 67 233 2.0 8.0 0.00 0.01 0.01 67 1012.5
20260901234217 67 203 2.0 8.0 0.00 0.01 0.01 67 1012.5
20260901233717 67 139 2.0 8.0 0.00 0.01 0.01 67 1012.5
20260901233217 67 246 2.0 5.0 0.00 0.01 0.01 68 1012.6
20260901232716 67 217 2.0 5.0 0.00 0.01 0.01 67 1012.6
20260901232217 67 202 2.0 7.0 0.00 0.01 0.01 67 1012.5
20260901231717 67 232 2.0 7.0 0.00 0.01 0.01 67 1012.7
20260901231216 67 252 2.0 6.0 0.00 0.01 0.01 68 1012.7
20260901230717 67 191 2.0 8.0 0.00 0.01 0.01 68 1012.7
20260901230217 67 216 3.0 8.0 0.00 0.01 0.01 68 1012.7
20260901225716 67 228 1.0 6.0 0.00 0.01 0.01 68 1012.7
20260901225216 67 201 1.0 4.0 0.00 0.01 0.01 69 1012.7
20260901224717 67 221 2.0 5.0 0.00 0.01 0.01 70 1012.7
20260901224216 67 215 2.0 6.0 0.00 0.01 0.01 69 1012.7
20260901223721 67 250 1.0 8.0 0.00 0.01 0.01 70 1012.6
20260901223716 67 228 1.0 6.0 0.00 0.01 0.01 69 1012.8
20260901222717 67 251 1.0 8.0 0.00 0.01 0.01 69 1012.7
20260901222216 67 187 1.0 3.0 0.00 0.01 0.01 70 1012.8
20260901221717 66 198 1.0 5.0 0.00 0.01 0.01 70 1012.7
20260901221216 66 248 1.0 5.0 0.00 0.01 0.01 70 1012.7
20260901220721 66 148 1.0 4.0 0.00 0.01 0.01 69 1012.8
20260901220717 66 245 1.0 4.0 0.00 0.01 0.01 70 1012.7
20260901215717 66 139 1.0 4.0 0.00 0.01 0.01 69 1012.8
20260901215217 67 159 1.0 4.0 0.00 0.01 0.01 69 1012.8
20260901214722 67 183 1.0 4.0 0.00 0.01 0.01 68 1012.7
20260901214716 67 206 1.0 4.0 0.00 0.01 0.01 69 1012.6
20260901214216 67 217 1.0 4.0 0.00 0.01 0.01 69 1012.6
20260901213215 67 123 2.0 7.0 0.00 0.01 0.01 69 1012.6
20260901212711 67 73 2.0 7.0 0.00 0.01 0.01 68 1012.5
20260901212206 67 50 2.0 8.0 0.00 0.01 0.01 68 1012.7
20260901211700 67 182 2.0 9.0 0.00 0.01 0.01 68 1012.7
20260901211656 67 227 2.0 9.0 0.00 0.01 0.01 69 1012.6
20260901210646 67 63 3.0 9.0 0.00 0.01 0.01 69 1012.7
20260901210143 66 215 3.0 9.0 0.00 0.01 0.01 69 1012.6
20260901205642 66 208 2.0 7.0 0.00 0.01 0.01 70 1012.5
20260901205142 66 298 2.0 7.0 0.00 0.01 0.01 71 1012.6
20260901204645 66 194 1.0 4.0 0.00 0.01 0.01 71 1012.6
20260901204142 66 209 1.0 7.0 0.00 0.01 0.01 71 1012.6
20260901204017 66 180 1.0 5.0 0.00 0.01 0.01 72 1012.6
20260901203909 66 139 1.0 7.0 0.00 0.01 0.01 71 1012.6
20260901202638 66 137 1.0 4.0 0.00 0.01 0.01 72 1012.6
20260901202139 66 172 1.0 4.0 0.00 0.01 0.01 72 1012.7
20260901201638 66 113 2.0 7.0 0.00 0.01 0.01 72 1012.7
20260901201138 65 76 1.0 7.0 0.00 0.01 0.01 73 1012.7
20260901200638 65 124 1.0 3.0 0.00 0.01 0.01 75 1012.7